Time,TemperatureF,DewpointF,PressureIn,WindDirection,WindDirectionDegrees,WindSpeedMPH,WindSpeedGustMPH,Humidity,HourlyPrecipIn,Conditions,Clouds,dailyrainin,SolarRadiationWatts/m^2,SoftwareType,DateUTC
2013-05-27 00:00:00,53.0,26.0,29.59,North,-999,0.0,0.0,35,0.00,,,-99.99,0,WeatherLink 5.7,2013-05-27 06:00:00,
2013-05-27 00:10:00,52.3,25.4,29.59,North,-999,0.0,0.0,35,0.00,,,-99.99,0,WeatherLink 5.7,2013-05-27 06:10:00,
2013-05-27 00:15:00,52.0,25.2,29.59,ESE,112,0.0,2.0,35,0.00,,,-99.99,0,WeatherLink 5.7,2013-05-27 06:15:00,
2013-05-27 00:25:00,51.7,26.9,29.60,ESE,112,0.0,1.0,38,0.00,,,-99.99,0,WeatherLink 5.7,2013-05-27 06:25:00,
2013-05-27 00:30:00,51.6,26.8,29.60,ESE,112,0.0,1.0,38,0.00,,,-99.99,0,WeatherLink 5.7,2013-05-27 06:30:00,
2013-05-27 00:40:00,51.0,26.9,29.60,East,90,0.0,3.0,39,0.00,,,-99.99,0,WeatherLink 5.7,2013-05-27 06:40:00,
2013-05-27 00:45:00,51.3,27.2,29.60,East,90,0.0,1.0,39,0.00,,,-99.99,0,WeatherLink 5.7,2013-05-27 06:45:00,
2013-05-27 00:50:00,51.4,25.3,29.60,East,90,0.0,1.0,36,0.00,,,-99.99,0,WeatherLink 5.7,2013-05-27 06:50:00,
2013-05-27 00:55:00,51.3,25.9,29.60,North,-999,0.0,0.0,37,0.00,,,-99.99,0,WeatherLink 5.7,2013-05-27 06:55:00,
2013-05-27 01:00:00,51.0,26.3,29.60,East,90,0.0,2.0,38,0.00,,,-99.99,0,WeatherLink 5.7,2013-05-27 07:00:00,
2013-05-27 01:10:00,51.1,23.7,29.60,East,90,0.0,1.0,34,0.00,,,-99.99,0,WeatherLink 5.7,2013-05-27 07:10:00,
2013-05-27 01:15:00,51.1,23.7,29.60,East,90,1.0,3.0,34,0.00,,,-99.99,0,WeatherLink 5.7,2013-05-27 07:15:00,
2013-05-27 01:25:00,51.3,21.6,29.59,ESE,112,0.0,1.0,31,0.00,,,-99.99,0,WeatherLink 5.7,2013-05-27 07:25:00,
2013-05-27 01:30:00,50.8,22.0,29.59,ESE,112,0.0,2.0,32,0.00,,,-99.99,0,WeatherLink 5.7,2013-05-27 07:30:00,
2013-05-27 01:40:00,50.2,22.9,29.60,SE,135,1.0,4.0,34,0.00,,,-99.99,0,WeatherLink 5.7,2013-05-27 07:40:00,
2013-05-27 01:45:00,50.1,22.1,29.60,ESE,112,1.0,3.0,33,0.00,,,-99.99,0,WeatherLink 5.7,2013-05-27 07:45:00,
2013-05-27 01:55:00,50.1,21.3,29.60,ESE,112,0.0,1.0,32,0.00,,,-99.99,0,WeatherLink 5.7,2013-05-27 07:55:00,
2013-05-27 02:00:00,50.1,21.3,29.60,ESE,112,0.0,3.0,32,0.00,,,-99.99,0,WeatherLink 5.7,2013-05-27 08:00:00,
2013-05-27 02:10:00,50.2,20.7,29.59,SE,135,0.0,2.0,31,0.00,,,-99.99,0,WeatherLink 5.7,2013-05-27 08:10:00,
2013-05-27 02:15:00,49.8,21.8,29.59,SE,135,0.0,1.0,33,0.00,,,-99.99,0,WeatherLink 5.7,2013-05-27 08:15:00,
2013-05-27 02:20:00,49.1,22.6,29.60,SE,135,0.0,2.0,35,0.00,,,-99.99,0,WeatherLink 5.7,2013-05-27 08:20:00,
2013-05-27 02:25:00,48.9,22.4,29.60,SE,135,0.0,1.0,35,0.00,,,-99.99,0,WeatherLink 5.7,2013-05-27 08:25:00,
2013-05-27 02:30:00,48.8,22.3,29.60,SE,135,0.0,2.0,35,0.00,,,-99.99,0,WeatherLink 5.7,2013-05-27 08:30:00,
2013-05-27 02:35:00,48.0,22.9,29.61,SE,135,0.0,1.0,37,0.00,,,-99.99,0,WeatherLink 5.7,2013-05-27 08:35:00,
2013-05-27 02:45:00,47.6,21.9,29.61,East,90,1.0,4.0,36,0.00,,,-99.99,0,WeatherLink 5.7,2013-05-27 08:45:00,
2013-05-27 02:50:00,47.4,23.0,29.61,East,90,2.0,4.0,38,0.00,,,-99.99,0,WeatherLink 5.7,2013-05-27 08:50:00,
2013-05-27 03:00:00,47.1,22.8,29.61,East,90,0.0,1.0,38,0.00,,,-99.99,0,WeatherLink 5.7,2013-05-27 09:00:00,
2013-05-27 03:10:00,46.8,22.5,29.61,East,90,0.0,3.0,38,0.00,,,-99.99,0,WeatherLink 5.7,2013-05-27 09:10:00,
2013-05-27 03:20:00,46.4,22.8,29.61,East,90,0.0,1.0,39,0.00,,,-99.99,0,WeatherLink 5.7,2013-05-27 09:20:00,
2013-05-27 03:25:00,46.1,22.5,29.61,East,90,0.0,3.0,39,0.00,,,-99.99,0,WeatherLink 5.7,2013-05-27 09:25:00,
2013-05-27 03:30:00,46.2,22.0,29.61,ESE,112,0.0,2.0,38,0.00,,,-99.99,0,WeatherLink 5.7,2013-05-27 09:30:00,
2013-05-27 03:40:00,45.4,23.0,29.61,ESE,112,0.0,1.0,41,0.00,,,-99.99,0,WeatherLink 5.7,2013-05-27 09:40:00,
2013-05-27 03:45:00,45.2,23.4,29.61,East,90,0.0,3.0,42,0.00,,,-99.99,0,WeatherLink 5.7,2013-05-27 09:45:00,
2013-05-27 03:55:00,45.1,23.3,29.61,East,90,0.0,2.0,42,0.00,,,-99.99,0,WeatherLink 5.7,2013-05-27 09:55:00,
2013-05-27 04:00:00,45.2,22.9,29.61,ESE,112,1.0,4.0,41,0.00,,,-99.99,0,WeatherLink 5.7,2013-05-27 10:00:00,
2013-05-27 04:10:00,44.6,22.9,29.61,ESE,112,0.0,2.0,42,0.00,,,-99.99,0,WeatherLink 5.7,2013-05-27 10:10:00,
2013-05-27 04:15:00,44.3,23.2,29.61,ESE,112,0.0,1.0,43,0.00,,,-99.99,0,WeatherLink 5.7,2013-05-27 10:15:00,
2013-05-27 04:20:00,44.2,22.5,29.61,ESE,112,0.0,1.0,42,0.00,,,-99.99,0,WeatherLink 5.7,2013-05-27 10:20:00,
2013-05-27 04:30:00,44.2,22.5,29.61,East,90,0.0,3.0,42,0.00,,,-99.99,0,WeatherLink 5.7,2013-05-27 10:30:00,
2013-05-27 04:35:00,43.9,23.4,29.61,East,90,0.0,3.0,44,0.00,,,-99.99,0,WeatherLink 5.7,2013-05-27 10:35:00,
2013-05-27 04:45:00,43.3,24.9,29.61,East,90,0.0,1.0,48,0.00,,,-99.99,0,WeatherLink 5.7,2013-05-27 10:45:00,
2013-05-27 04:55:00,42.0,25.2,29.62,East,90,0.0,1.0,51,0.00,,,-99.99,0,WeatherLink 5.7,2013-05-27 10:55:00,
2013-05-27 05:00:00,41.5,25.6,29.62,East,90,1.0,3.0,53,0.00,,,-99.99,0,WeatherLink 5.7,2013-05-27 11:00:00,
2013-05-27 05:10:00,41.2,26.2,29.64,North,-999,0.0,0.0,55,0.00,,,-99.99,0,WeatherLink 5.7,2013-05-27 11:10:00,
2013-05-27 05:15:00,40.9,26.4,29.64,East,90,0.0,1.0,56,0.00,,,-99.99,0,WeatherLink 5.7,2013-05-27 11:15:00,
2013-05-27 05:20:00,41.0,26.1,29.64,East,90,1.0,3.0,55,0.00,,,-99.99,0,WeatherLink 5.7,2013-05-27 11:20:00,
2013-05-27 05:25:00,41.5,25.6,29.64,East,90,0.0,4.0,53,0.00,,,-99.99,0,WeatherLink 5.7,2013-05-27 11:25:00,
2013-05-27 05:35:00,41.5,25.2,29.65,ESE,112,0.0,1.0,52,0.00,,,-99.99,0,WeatherLink 5.7,2013-05-27 11:35:00,
2013-05-27 05:45:00,41.3,25.4,29.65,North,-999,0.0,0.0,53,0.00,,,-99.99,0,WeatherLink 5.7,2013-05-27 11:45:00,
2013-05-27 05:50:00,41.2,25.8,29.65,ESE,112,0.0,1.0,54,0.00,,,-99.99,0,WeatherLink 5.7,2013-05-27 11:50:00,
2013-05-27 05:55:00,41.0,25.6,29.65,ESE,112,0.0,3.0,54,0.00,,,-99.99,3,WeatherLink 5.7,2013-05-27 11:55:00,
2013-05-27 06:00:00,41.0,25.2,29.65,ESE,112,0.0,1.0,53,0.00,,,-99.99,6,WeatherLink 5.7,2013-05-27 12:00:00,
2013-05-27 06:10:00,41.0,25.6,29.65,ESE,112,0.0,3.0,54,0.00,,,-99.99,9,WeatherLink 5.7,2013-05-27 12:10:00,
2013-05-27 06:15:00,40.8,25.9,29.65,ESE,112,0.0,3.0,55,0.00,,,-99.99,11,WeatherLink 5.7,2013-05-27 12:15:00,
2013-05-27 06:25:00,40.6,26.5,29.68,ESE,112,0.0,3.0,57,0.00,,,-99.99,12,WeatherLink 5.7,2013-05-27 12:25:00,
2013-05-27 06:30:00,40.0,26.8,29.68,ESE,112,0.0,3.0,59,0.00,,,-99.99,14,WeatherLink 5.7,2013-05-27 12:30:00,
2013-05-27 06:40:00,40.3,26.3,29.68,SE,135,1.0,5.0,57,0.00,,,-99.99,18,WeatherLink 5.7,2013-05-27 12:40:00,
2013-05-27 06:45:00,40.5,26.4,29.68,SE,135,0.0,3.0,57,0.00,,,-99.99,19,WeatherLink 5.7,2013-05-27 12:45:00,
2013-05-27 06:50:00,40.2,26.6,29.69,SE,135,0.0,1.0,58,0.00,,,-99.99,19,WeatherLink 5.7,2013-05-27 12:50:00,
2013-05-27 07:00:00,39.6,27.2,29.69,SE,135,0.0,3.0,61,0.00,,,-99.99,22,WeatherLink 5.7,2013-05-27 13:00:00,
2013-05-27 07:10:00,39.8,27.8,29.69,East,90,1.0,4.0,62,0.00,,,-99.99,25,WeatherLink 5.7,2013-05-27 13:10:00,
2013-05-27 07:15:00,39.9,27.1,29.69,East,90,2.0,5.0,60,0.00,,,-99.99,26,WeatherLink 5.7,2013-05-27 13:15:00,
2013-05-27 07:25:00,40.2,26.6,29.73,East,90,1.0,4.0,58,0.00,,,-99.99,29,WeatherLink 5.7,2013-05-27 13:25:00,
2013-05-27 07:30:00,40.5,26.9,29.73,East,90,2.0,4.0,58,0.00,,,-99.99,34,WeatherLink 5.7,2013-05-27 13:30:00,
2013-05-27 07:40:00,42.5,27.0,29.73,East,90,1.0,4.0,54,0.00,,,-99.99,269,WeatherLink 5.7,2013-05-27 13:40:00,
2013-05-27 07:45:00,43.8,27.3,29.73,East,90,0.0,3.0,52,0.00,,,-99.99,287,WeatherLink 5.7,2013-05-27 13:45:00,
2013-05-27 07:55:00,45.1,27.6,29.70,East,90,0.0,3.0,50,0.00,,,-99.99,323,WeatherLink 5.7,2013-05-27 13:55:00,
2013-05-27 08:00:00,46.2,27.6,29.70,East,90,0.0,3.0,48,0.00,,,-99.99,342,WeatherLink 5.7,2013-05-27 14:00:00,
2013-05-27 08:10:00,48.9,28.5,29.68,East,90,0.0,2.0,45,0.00,,,-99.99,375,WeatherLink 5.7,2013-05-27 14:10:00,
2013-05-27 08:20:00,50.4,27.6,29.70,East,90,0.0,1.0,41,0.00,,,-99.99,412,WeatherLink 5.7,2013-05-27 14:20:00,
2013-05-27 08:25:00,51.4,27.2,29.70,East,90,0.0,3.0,39,0.00,,,-99.99,431,WeatherLink 5.7,2013-05-27 14:25:00,
2013-05-27 08:35:00,52.2,26.0,29.69,East,90,4.0,7.0,36,0.00,,,-99.99,466,WeatherLink 5.7,2013-05-27 14:35:00,
2013-05-27 08:45:00,53.0,26.0,29.69,East,90,2.0,5.0,35,0.00,,,-99.99,500,WeatherLink 5.7,2013-05-27 14:45:00,
2013-05-27 08:50:00,54.5,26.7,29.67,East,90,0.0,1.0,34,0.00,,,-99.99,516,WeatherLink 5.7,2013-05-27 14:50:00,
2013-05-27 09:00:00,56.6,27.0,29.67,East,90,0.0,3.0,32,0.00,,,-99.99,550,WeatherLink 5.7,2013-05-27 15:00:00,
2013-05-27 09:10:00,57.8,25.7,29.66,East,90,0.0,3.0,29,0.00,,,-99.99,585,WeatherLink 5.7,2013-05-27 15:10:00,
2013-05-27 09:15:00,58.7,25.6,29.66,East,90,0.0,1.0,28,0.00,,,-99.99,601,WeatherLink 5.7,2013-05-27 15:15:00,
2013-05-27 09:25:00,59.5,25.5,29.65,North,-999,0.0,0.0,27,0.00,,,-99.99,632,WeatherLink 5.7,2013-05-27 15:25:00,
2013-05-27 09:30:00,59.5,25.5,29.65,NNW,337,0.0,1.0,27,0.00,,,-99.99,647,WeatherLink 5.7,2013-05-27 15:30:00,
2013-05-27 09:40:00,59.9,26.7,29.64,NNW,337,0.0,1.0,28,0.00,,,-99.99,677,WeatherLink 5.7,2013-05-27 15:40:00,
2013-05-27 10:05:00,60.6,27.3,29.64,North,-999,0.0,0.0,28,0.00,,,-99.99,692,WeatherLink 5.7,2013-05-27 16:05:00,
2013-05-27 10:10:00,62.9,28.4,29.61,NW,315,0.0,6.0,27,0.00,,,-99.99,764,WeatherLink 5.7,2013-05-27 16:10:00,
2013-05-27 10:15:00,63.6,28.1,29.61,NW,315,1.0,3.0,26,0.00,,,-99.99,777,WeatherLink 5.7,2013-05-27 16:15:00,
2013-05-27 10:20:00,64.4,27.8,29.62,NW,315,0.0,3.0,25,0.00,,,-99.99,791,WeatherLink 5.7,2013-05-27 16:20:00,
2013-05-27 10:30:00,65.7,28.9,29.62,NW,315,2.0,6.0,25,0.00,,,-99.99,814,WeatherLink 5.7,2013-05-27 16:30:00,
2013-05-27 10:35:00,67.8,26.4,29.60,WSW,247,1.0,6.0,21,0.00,,,-99.99,827,WeatherLink 5.7,2013-05-27 16:35:00,
2013-05-27 10:40:00,69.5,25.4,29.60,NNW,337,0.0,3.0,19,0.00,,,-99.99,839,WeatherLink 5.7,2013-05-27 16:40:00,
2013-05-27 10:50:00,70.6,25.0,29.57,NNW,337,0.0,1.0,18,0.00,,,-99.99,870,WeatherLink 5.7,2013-05-27 16:50:00,
2013-05-27 10:55:00,70.8,25.2,29.57,NNW,337,1.0,4.0,18,0.00,,,-99.99,878,WeatherLink 5.7,2013-05-27 16:55:00,
2013-05-27 11:00:00,70.8,23.8,29.57,North,0,1.0,6.0,17,0.00,,,-99.99,889,WeatherLink 5.7,2013-05-27 17:00:00,
2013-05-27 11:10:00,70.8,22.3,29.56,NNW,337,1.0,6.0,16,0.00,,,-99.99,916,WeatherLink 5.7,2013-05-27 17:10:00,
2013-05-27 11:20:00,70.6,25.0,29.57,NNW,337,2.0,11.0,18,0.00,,,-99.99,931,WeatherLink 5.7,2013-05-27 17:20:00,
2013-05-27 11:25:00,71.0,24.0,29.57,NNW,337,1.0,5.0,17,0.00,,,-99.99,939,WeatherLink 5.7,2013-05-27 17:25:00,
2013-05-27 11:35:00,70.6,22.2,29.57,North,0,1.0,11.0,16,0.00,,,-99.99,965,WeatherLink 5.7,2013-05-27 17:35:00,
2013-05-27 11:45:00,71.2,22.7,29.57,North,0,1.0,7.0,16,0.00,,,-99.99,979,WeatherLink 5.7,2013-05-27 17:45:00,
2013-05-27 11:50:00,71.3,22.7,29.57,NNW,337,1.0,5.0,16,0.00,,,-99.99,978,WeatherLink 5.7,2013-05-27 17:50:00,
2013-05-27 11:55:00,71.8,23.2,29.57,North,0,1.0,6.0,16,0.00,,,-99.99,986,WeatherLink 5.7,2013-05-27 17:55:00,
2013-05-27 12:00:00,71.8,23.2,29.57,NNW,337,2.0,7.0,16,0.00,,,-99.99,991,WeatherLink 5.7,2013-05-27 18:00:00,
2013-05-27 12:10:00,71.8,23.2,29.56,NNW,337,2.0,6.0,16,0.00,,,-99.99,999,WeatherLink 5.7,2013-05-27 18:10:00,
2013-05-27 12:15:00,72.2,24.9,29.56,NNW,337,1.0,5.0,17,0.00,,,-99.99,1013,WeatherLink 5.7,2013-05-27 18:15:00,
2013-05-27 12:25:00,73.2,24.3,29.55,NNW,337,1.0,7.0,16,0.00,,,-99.99,1025,WeatherLink 5.7,2013-05-27 18:25:00,
2013-05-27 12:35:00,73.2,24.3,29.55,North,0,2.0,9.0,16,0.00,,,-99.99,1058,WeatherLink 5.7,2013-05-27 18:35:00,
2013-05-27 12:40:00,73.4,24.4,29.55,NNW,337,2.0,6.0,16,0.00,,,-99.99,1060,WeatherLink 5.7,2013-05-27 18:40:00,
2013-05-27 12:50:00,73.6,26.1,29.55,NNW,337,2.0,9.0,17,0.00,,,-99.99,986,WeatherLink 5.7,2013-05-27 18:50:00,
2013-05-27 12:55:00,74.1,25.0,29.55,NNW,337,3.0,10.0,16,0.00,,,-99.99,1062,WeatherLink 5.7,2013-05-27 18:55:00,
2013-05-27 13:00:00,74.6,25.4,29.55,NNW,337,1.0,6.0,16,0.00,,,-99.99,928,WeatherLink 5.7,2013-05-27 19:00:00,
2013-05-27 13:10:00,74.3,25.2,29.53,North,0,3.0,11.0,16,0.00,,,-99.99,1080,WeatherLink 5.7,2013-05-27 19:10:00,
2013-05-27 13:15:00,74.3,25.2,29.53,NNW,337,2.0,10.0,16,0.00,,,-99.99,1082,WeatherLink 5.7,2013-05-27 19:15:00,
2013-05-27 13:25:00,74.8,25.6,29.52,NNW,337,3.0,10.0,16,0.00,,,-99.99,1066,WeatherLink 5.7,2013-05-27 19:25:00,
2013-05-27 13:30:00,74.8,24.0,29.52,North,0,4.0,16.0,15,0.00,,,-99.99,1072,WeatherLink 5.7,2013-05-27 19:30:00,
2013-05-27 13:40:00,75.5,26.1,29.51,North,0,1.0,5.0,16,0.00,,,-99.99,1076,WeatherLink 5.7,2013-05-27 19:40:00,
2013-05-27 13:50:00,75.5,24.6,29.51,SE,135,0.0,5.0,15,0.00,,,-99.99,1069,WeatherLink 5.7,2013-05-27 19:50:00,
2013-05-27 13:55:00,76.0,26.5,29.51,NNW,337,1.0,5.0,16,0.00,,,-99.99,1063,WeatherLink 5.7,2013-05-27 19:55:00,
2013-05-27 14:00:00,76.4,25.3,29.51,North,0,1.0,5.0,15,0.00,,,-99.99,1071,WeatherLink 5.7,2013-05-27 20:00:00,
2013-05-27 14:10:00,76.0,25.0,29.48,NNW,337,5.0,14.0,15,0.00,,,-99.99,1060,WeatherLink 5.7,2013-05-27 20:10:00,
2013-05-27 14:20:00,76.4,25.3,29.52,NNW,337,4.0,17.0,15,0.00,,,-99.99,1065,WeatherLink 5.7,2013-05-27 20:20:00,
2013-05-27 14:25:00,76.5,25.4,29.52,North,0,1.0,17.0,15,0.00,,,-99.99,1084,WeatherLink 5.7,2013-05-27 20:25:00,
2013-05-27 14:35:00,76.9,25.7,29.51,NNW,337,2.0,10.0,15,0.00,,,-99.99,1095,WeatherLink 5.7,2013-05-27 20:35:00,
2013-05-27 14:40:00,77.1,24.2,29.51,North,0,1.0,6.0,14,0.00,,,-99.99,1052,WeatherLink 5.7,2013-05-27 20:40:00,
2013-05-27 14:50:00,76.9,25.7,29.50,NNW,337,2.0,12.0,15,0.00,,,-99.99,1056,WeatherLink 5.7,2013-05-27 20:50:00,
2013-05-27 14:55:00,77.1,24.2,29.50,NW,315,2.0,7.0,14,0.00,,,-99.99,1039,WeatherLink 5.7,2013-05-27 20:55:00,
2013-05-27 15:00:00,77.1,24.2,29.50,North,0,3.0,12.0,14,0.00,,,-99.99,1057,WeatherLink 5.7,2013-05-27 21:00:00,
2013-05-27 15:10:00,77.1,24.2,29.49,NNW,337,4.0,11.0,14,0.00,,,-99.99,995,WeatherLink 5.7,2013-05-27 21:10:00,
2013-05-27 15:15:00,76.9,24.0,29.49,North,0,3.0,18.0,14,0.00,,,-99.99,984,WeatherLink 5.7,2013-05-27 21:15:00,
2013-05-27 15:25:00,77.1,24.2,29.50,NNW,337,2.0,9.0,14,0.00,,,-99.99,949,WeatherLink 5.7,2013-05-27 21:25:00,
2013-05-27 15:30:00,77.1,24.2,29.50,North,0,3.0,10.0,14,0.00,,,-99.99,926,WeatherLink 5.7,2013-05-27 21:30:00,
2013-05-27 15:35:00,76.7,23.9,29.50,NNW,337,4.0,14.0,14,0.00,,,-99.99,920,WeatherLink 5.7,2013-05-27 21:35:00,
2013-05-27 15:45:00,77.1,24.2,29.50,NW,315,3.0,11.0,14,0.00,,,-99.99,873,WeatherLink 5.7,2013-05-27 21:45:00,
2013-05-27 15:55:00,76.7,23.9,29.51,NNW,337,2.0,8.0,14,0.00,,,-99.99,881,WeatherLink 5.7,2013-05-27 21:55:00,
2013-05-27 16:00:00,77.4,24.4,29.51,NNW,337,3.0,9.0,14,0.00,,,-99.99,903,WeatherLink 5.7,2013-05-27 22:00:00,
2013-05-27 16:10:00,78.2,25.1,29.49,NW,315,3.0,11.0,14,0.00,,,-99.99,867,WeatherLink 5.7,2013-05-27 22:10:00,
2013-05-27 16:15:00,76.7,25.5,29.49,NNW,337,3.0,13.0,15,0.00,,,-99.99,427,WeatherLink 5.7,2013-05-27 22:15:00,
2013-05-27 16:20:00,76.2,25.1,29.52,NW,315,1.0,6.0,15,0.00,,,-99.99,208,WeatherLink 5.7,2013-05-27 22:20:00,
2013-05-27 16:25:00,75.8,24.8,29.52,NW,315,1.0,9.0,15,0.00,,,-99.99,276,WeatherLink 5.7,2013-05-27 22:25:00,
2013-05-27 16:35:00,75.1,24.3,29.52,East,90,0.0,3.0,15,0.00,,,-99.99,810,WeatherLink 5.7,2013-05-27 22:35:00,
2013-05-27 16:40:00,75.8,24.8,29.52,NW,315,1.0,5.0,15,0.00,,,-99.99,770,WeatherLink 5.7,2013-05-27 22:40:00,
2013-05-27 16:50:00,76.4,23.6,29.52,NNW,337,2.0,10.0,14,0.00,,,-99.99,532,WeatherLink 5.7,2013-05-27 22:50:00,
2013-05-27 16:55:00,76.5,23.7,29.52,NNW,337,3.0,11.0,14,0.00,,,-99.99,723,WeatherLink 5.7,2013-05-27 22:55:00,
2013-05-27 17:00:00,76.9,20.4,29.52,North,0,1.0,6.0,12,0.00,,,-99.99,706,WeatherLink 5.7,2013-05-27 23:00:00,
2013-05-27 17:10:00,77.6,22.8,29.50,NNW,337,1.0,12.0,13,0.00,,,-99.99,680,WeatherLink 5.7,2013-05-27 23:10:00,
2013-05-27 17:20:00,76.9,25.7,29.50,NNW,337,2.0,7.0,15,0.00,,,-99.99,659,WeatherLink 5.7,2013-05-27 23:20:00,
2013-05-27 17:25:00,76.5,25.4,29.50,NW,315,1.0,4.0,15,0.00,,,-99.99,246,WeatherLink 5.7,2013-05-27 23:25:00,
2013-05-27 17:30:00,76.5,23.7,29.50,WSW,247,2.0,7.0,14,0.00,,,-99.99,599,WeatherLink 5.7,2013-05-27 23:30:00,
2013-05-27 17:35:00,76.9,25.7,29.49,WSW,247,0.0,6.0,15,0.00,,,-99.99,581,WeatherLink 5.7,2013-05-27 23:35:00,
2013-05-27 17:45:00,76.4,23.6,29.49,NW,315,1.0,5.0,14,0.00,,,-99.99,120,WeatherLink 5.7,2013-05-27 23:45:00,
2013-05-27 17:50:00,75.7,24.7,29.50,NW,315,1.0,6.0,15,0.00,,,-99.99,90,WeatherLink 5.7,2013-05-27 23:50:00,
2013-05-27 18:00:00,74.6,23.9,29.50,NW,315,0.0,4.0,15,0.00,,,-99.99,169,WeatherLink 5.7,2013-05-28 00:00:00,
2013-05-27 18:10:00,75.7,24.7,29.50,West,270,1.0,5.0,15,0.00,,,-99.99,169,WeatherLink 5.7,2013-05-28 00:10:00,
2013-05-27 18:20:00,75.5,22.9,29.50,NW,315,0.0,4.0,14,0.00,,,-99.99,148,WeatherLink 5.7,2013-05-28 00:20:00,
2013-05-27 18:25:00,75.8,24.8,29.50,WNW,292,1.0,4.0,15,0.00,,,-99.99,101,WeatherLink 5.7,2013-05-28 00:25:00,
2013-05-27 18:35:00,75.5,22.9,29.50,NW,315,3.0,9.0,14,0.00,,,-99.99,81,WeatherLink 5.7,2013-05-28 00:35:00,
2013-05-27 18:45:00,75.1,24.3,29.50,NW,315,1.0,4.0,15,0.00,,,-99.99,68,WeatherLink 5.7,2013-05-28 00:45:00,
2013-05-27 18:50:00,75.0,22.5,29.51,NW,315,0.0,3.0,14,0.00,,,-99.99,63,WeatherLink 5.7,2013-05-28 00:50:00,
2013-05-27 18:55:00,74.8,24.0,29.51,NW,315,1.0,4.0,15,0.00,,,-99.99,52,WeatherLink 5.7,2013-05-28 00:55:00,
2013-05-27 19:00:00,74.4,23.7,29.51,NNW,337,1.0,5.0,15,0.00,,,-99.99,51,WeatherLink 5.7,2013-05-28 01:00:00,
2013-05-27 19:10:00,73.6,24.6,29.51,West,270,0.0,2.0,16,0.00,,,-99.99,42,WeatherLink 5.7,2013-05-28 01:10:00,
2013-05-27 19:15:00,73.0,24.1,29.51,West,270,0.0,1.0,16,0.00,,,-99.99,36,WeatherLink 5.7,2013-05-28 01:15:00,
2013-05-27 19:25:00,71.7,24.5,29.48,West,270,0.0,1.0,17,0.00,,,-99.99,26,WeatherLink 5.7,2013-05-28 01:25:00,
2013-05-27 19:30:00,71.2,24.1,29.48,West,270,0.0,1.0,17,0.00,,,-99.99,25,WeatherLink 5.7,2013-05-28 01:30:00,
2013-05-27 19:35:00,70.6,25.0,29.50,North,-999,0.0,0.0,18,0.00,,,-99.99,24,WeatherLink 5.7,2013-05-28 01:35:00,
2013-05-27 19:45:00,70.0,24.5,29.50,North,-999,0.0,0.0,18,0.00,,,-99.99,20,WeatherLink 5.7,2013-05-28 01:45:00,
2013-05-27 19:50:00,69.6,26.7,29.51,North,-999,0.0,0.0,20,0.00,,,-99.99,19,WeatherLink 5.7,2013-05-28 01:50:00,
2013-05-27 20:00:00,69.1,26.3,29.51,North,-999,0.0,0.0,20,0.00,,,-99.99,15,WeatherLink 5.7,2013-05-28 02:00:00,
2013-05-27 20:10:00,67.6,28.5,29.51,North,-999,0.0,0.0,23,0.00,,,-99.99,11,WeatherLink 5.7,2013-05-28 02:10:00,
2013-05-27 20:15:00,66.6,29.6,29.51,North,-999,0.0,0.0,25,0.00,,,-99.99,7,WeatherLink 5.7,2013-05-28 02:15:00,
2013-05-27 20:25:00,65.3,26.5,29.48,North,-999,0.0,0.0,23,0.00,,,-99.99,0,WeatherLink 5.7,2013-05-28 02:25:00,
2013-05-27 20:30:00,64.9,27.2,29.48,North,-999,0.0,0.0,24,0.00,,,-99.99,0,WeatherLink 5.7,2013-05-28 02:30:00,
2013-05-27 20:40:00,63.7,26.2,29.49,North,-999,0.0,0.0,24,0.00,,,-99.99,0,WeatherLink 5.7,2013-05-28 02:40:00,
2013-05-27 20:45:00,63.1,24.7,29.49,West,270,0.0,2.0,23,0.00,,,-99.99,0,WeatherLink 5.7,2013-05-28 02:45:00,
2013-05-27 20:50:00,62.9,23.4,29.50,West,270,0.0,1.0,22,0.00,,,-99.99,0,WeatherLink 5.7,2013-05-28 02:50:00,
2013-05-27 20:55:00,63.1,25.7,29.50,North,-999,0.0,0.0,24,0.00,,,-99.99,0,WeatherLink 5.7,2013-05-28 02:55:00,
2013-05-27 21:00:00,62.9,27.5,29.50,North,-999,0.0,0.0,26,0.00,,,-99.99,0,WeatherLink 5.7,2013-05-28 03:00:00,
2013-05-27 21:10:00,62.8,24.4,29.51,West,270,0.0,3.0,23,0.00,,,-99.99,0,WeatherLink 5.7,2013-05-28 03:10:00,
2013-05-27 21:15:00,62.9,23.4,29.51,North,-999,0.0,0.0,22,0.00,,,-99.99,0,WeatherLink 5.7,2013-05-28 03:15:00,
2013-05-27 21:20:00,62.9,23.4,29.49,North,-999,0.0,0.0,22,0.00,,,-99.99,0,WeatherLink 5.7,2013-05-28 03:20:00,
2013-05-27 21:30:00,62.8,23.3,29.49,North,-999,0.0,0.0,22,0.00,,,-99.99,0,WeatherLink 5.7,2013-05-28 03:30:00,
2013-05-27 21:35:00,62.6,23.2,29.49,North,-999,0.0,0.0,22,0.00,,,-99.99,0,WeatherLink 5.7,2013-05-28 03:35:00,
2013-05-27 21:45:00,62.1,23.8,29.49,North,-999,0.0,0.0,23,0.00,,,-99.99,0,WeatherLink 5.7,2013-05-28 03:45:00,
2013-05-27 21:50:00,61.7,24.5,29.50,North,-999,0.0,0.0,24,0.00,,,-99.99,0,WeatherLink 5.7,2013-05-28 03:50:00,
2013-05-27 21:55:00,61.3,25.1,29.50,North,-999,0.0,0.0,25,0.00,,,-99.99,0,WeatherLink 5.7,2013-05-28 03:55:00,
2013-05-27 22:00:00,61.2,25.1,29.50,North,-999,0.0,0.0,25,0.00,,,-99.99,0,WeatherLink 5.7,2013-05-28 04:00:00,
2013-05-27 22:05:00,60.9,24.8,29.51,North,-999,0.0,0.0,25,0.00,,,-99.99,0,WeatherLink 5.7,2013-05-28 04:05:00,
2013-05-27 22:10:00,60.7,25.6,29.51,North,-999,0.0,0.0,26,0.00,,,-99.99,0,WeatherLink 5.7,2013-05-28 04:10:00,
2013-05-27 22:15:00,60.1,25.1,29.51,North,-999,0.0,0.0,26,0.00,,,-99.99,0,WeatherLink 5.7,2013-05-28 04:15:00,
2013-05-27 22:20:00,59.3,24.4,29.48,SSE,157,0.0,2.0,26,0.00,,,-99.99,0,WeatherLink 5.7,2013-05-28 04:20:00,
2013-05-27 22:25:00,59.0,24.1,29.48,SE,135,0.0,3.0,26,0.00,,,-99.99,0,WeatherLink 5.7,2013-05-28 04:25:00,
2013-05-27 22:30:00,58.6,25.6,29.48,SE,135,0.0,1.0,28,0.00,,,-99.99,0,WeatherLink 5.7,2013-05-28 04:30:00,
2013-05-27 22:40:00,57.7,23.9,29.49,North,-999,0.0,0.0,27,0.00,,,-99.99,0,WeatherLink 5.7,2013-05-28 04:40:00,
2013-05-27 22:45:00,57.0,24.2,29.49,North,-999,0.0,0.0,28,0.00,,,-99.99,0,WeatherLink 5.7,2013-05-28 04:45:00,
2013-05-27 22:50:00,56.7,23.9,29.50,SE,135,0.0,2.0,28,0.00,,,-99.99,0,WeatherLink 5.7,2013-05-28 04:50:00,
2013-05-27 23:00:00,56.0,24.2,29.50,North,-999,0.0,0.0,29,0.00,,,-99.99,0,WeatherLink 5.7,2013-05-28 05:00:00,
2013-05-27 23:10:00,55.0,24.9,29.50,SE,135,0.0,1.0,31,0.00,,,-99.99,0,WeatherLink 5.7,2013-05-28 05:10:00,
2013-05-27 23:20:00,54.7,24.6,29.51,North,-999,0.0,0.0,31,0.00,,,-99.99,0,WeatherLink 5.7,2013-05-28 05:20:00,
2013-05-27 23:30:00,54.4,24.4,29.51,SE,135,0.0,2.0,31,0.00,,,-99.99,0,WeatherLink 5.7,2013-05-28 05:30:00,
2013-05-27 23:35:00,54.2,24.2,29.51,ESE,112,0.0,1.0,31,0.00,,,-99.99,0,WeatherLink 5.7,2013-05-28 05:35:00,
2013-05-27 23:45:00,53.3,24.9,29.51,ESE,112,0.0,3.0,33,0.00,,,-99.99,0,WeatherLink 5.7,2013-05-28 05:45:00,
2013-05-27 23:50:00,53.2,24.1,29.52,ESE,112,0.0,1.0,32,0.00,,,-99.99,0,WeatherLink 5.7,2013-05-28 05:50:00,
2013-05-27 23:55:00,52.9,24.5,29.52,ESE,112,0.0,1.0,33,0.00,,,-99.99,0,WeatherLink 5.7,2013-05-28 05:55:00,